Change the Weather History Date:

Thursday, May 2, 2013

  Actual Average Record
Temperature  
Mean Temperature 72 °F -  
Max Temperature 82 °F 76 °F 86 °F (1999)
Min Temperature 63 °F 60 °F 50 °F (2001)
Cooling Degree Days 8    
Growing Degree Days 22 (Base 50)    
Moisture  
Dew Point 57 °F    
Average Humidity 59    
Maximum Humidity 77    
Minimum Humidity 43    
Precipitation  
Precipitation 0.00 in 0.03 in - ()
Sea Level Pressure  
Sea Level Pressure 29.91 in    
Wind  
Wind Speed 6 mph ()    
Max Wind Speed 15 mph    
Max Gust Speed -    
Visibility 7.7 miles    
Events      
Averages and records for this station are not official NWS values.
T = Trace of Precipitation, MM = Missing Value Source: Averaged Metar Reports

Daily Weather History Graph

Daily Weather History Graph

Search for Another Location

Airport or City:

Trip Planner

Search our weather history database for the weather conditions in past years. The results will help you decide how hot, cold, wet, or windy it might be!

Date:

Astronomy

May. 02, 2013 Rise Set
Actual Time 6:14 AM EEST 8:07 PM EEST
Civil Twilight 5:45 AM EEST 8:36 PM EEST
Nautical Twilight 5:10 AM EEST 9:11 PM EEST
Astronomical Twilight 4:32 AM EEST 9:49 PM EEST
Moon 1:44 AM EEST (5/2) 12:39 PM EEST (5/2)
Length of Visible Light 14h 50m
Length of Day
13h 53m
Waning Gibbous, 51% of the Moon is Illuminated
May 2
Waning Gibbous
May 2
Last Quarter
May 10
New
May 18
First Quarter
May 25
Full

Hourly Weather History & Observations

Time (EEST) Temp. Heat Index Dew Point Humidity Pressure Visibility Wind Dir Wind Speed Gust Speed Precip Events Conditions
12:50 AM 71.6 °F - 51.8 °F 50% 29.95 in - WNW 5.8 mph - N/A   Clear
1:50 AM 69.8 °F - 51.8 °F 53% 29.95 in - Variable 3.5 mph - N/A   Clear
2:50 AM 68.0 °F - 53.6 °F 60% 29.95 in - Calm Calm - N/A   Clear
3:00 AM 68 °F - 54 °F 52% 29.95 in 9 mi Calm Calm - -  
3:50 AM 66.2 °F - 53.6 °F 64% 29.95 in - Variable 3.5 mph - N/A   Clear
4:20 AM 66.2 °F - 53.6 °F 64% 29.95 in - West 4.6 mph - N/A   Clear
4:50 AM 66.2 °F - 53.6 °F 64% 29.92 in - WNW 8.1 mph - N/A   Clear
5:20 AM 66.2 °F - 53.6 °F 64% 29.92 in - WNW 5.8 mph - N/A   Clear
5:50 AM 66.2 °F - 53.6 °F 64% 29.92 in - WNW 8.1 mph - N/A   Clear
6:20 AM 64.4 °F - 53.6 °F 68% 29.92 in - Variable 3.5 mph - N/A   Clear
6:50 AM 64.4 °F - 57.2 °F 77% 29.92 in - Variable 3.5 mph - N/A   Clear
7:20 AM 64.4 °F - 55.4 °F 73% 29.92 in - Calm Calm - N/A   Clear
7:50 AM 66.2 °F - 55.4 °F 68% 29.92 in - North 5.8 mph - N/A   Clear
8:20 AM 68.0 °F - 55.4 °F 64% 29.92 in - North 8.1 mph - N/A   Clear
8:50 AM 68.0 °F - 55.4 °F 64% 29.92 in - North 11.5 mph - N/A   Clear
9:00 AM 69 °F - 56 °F 53% 29.94 in 6 mi North 11.5 mph - -  
9:20 AM 69.8 °F - 55.4 °F 60% 29.95 in - North 13.8 mph - N/A   Clear
9:50 AM 71.6 °F - 55.4 °F 57% 29.95 in - North 10.4 mph - N/A   Clear
10:20 AM 71.6 °F - 55.4 °F 57% 29.95 in - North 10.4 mph - N/A   Clear
10:50 AM 71.6 °F - 57.2 °F 60% 29.95 in - NNE 9.2 mph - N/A   Clear
11:20 AM 71.6 °F - 57.2 °F 60% 29.95 in - NNE 9.2 mph - N/A   Clear
11:50 AM 73.4 °F - 59.0 °F 61% 29.95 in - North 13.8 mph - N/A   Clear
12:20 PM 73.4 °F - 59.0 °F 61% 29.95 in - North 15.0 mph - N/A   Clear
12:50 PM 75.2 °F - 57.2 °F 53% 29.92 in - North 13.8 mph - N/A   Clear
1:20 PM 75.2 °F - 57.2 °F 53% 29.92 in - North 13.8 mph - N/A   Clear
1:50 PM 75.2 °F - 60.8 °F 61% 29.92 in - North 13.8 mph - N/A   Clear
2:20 PM 75.2 °F - 60.8 °F 61% 29.92 in - North 10.4 mph - N/A   Clear
2:50 PM 77.0 °F - 59.0 °F 54% 29.92 in - North 10.4 mph - N/A   Clear
3:00 PM 77 °F - 59 °F 43% 29.93 in 7 mi North 10.4 mph - -  
3:20 PM 77.0 °F - 59.0 °F 54% 29.92 in - North 9.2 mph - N/A   Clear
3:50 PM 78.8 °F - 57.2 °F 47% 29.89 in - North 9.2 mph - N/A   Clear
4:20 PM 78.8 °F - 57.2 °F 47% 29.89 in - North 8.1 mph - N/A   Clear
4:50 PM 78.8 °F - 59.0 °F 51% 29.89 in - North 6.9 mph - N/A   Clear
5:20 PM 78.8 °F - 59.0 °F 51% 29.89 in - North 5.8 mph - N/A   Clear
5:50 PM 80.6 °F 80.8 °F 57.2 °F 45% 29.89 in - North 6.9 mph - N/A   Clear
6:20 PM 80.6 °F 80.8 °F 57.2 °F 45% 29.86 in - North 5.8 mph - N/A   Clear
6:50 PM 80.6 °F 81.1 °F 59.0 °F 48% 29.86 in - North 4.6 mph - N/A   Clear
7:20 PM 80.6 °F 81.1 °F 59.0 °F 48% 29.86 in - Calm Calm - N/A   Clear
7:50 PM 77.0 °F - 64.4 °F 65% 29.86 in - Calm Calm - N/A   Clear
8:20 PM 75.2 °F - 62.6 °F 65% 29.86 in - Calm Calm - N/A   Clear
8:50 PM 71.6 °F - 59.0 °F 64% 29.89 in - Calm Calm - N/A   Clear
9:00 PM 72 °F - 59 °F 54% 29.90 in 9 mi Calm Calm - -  
9:20 PM 71.6 °F - 59.0 °F 64% 29.89 in - Calm Calm - N/A   Clear
9:50 PM 69.8 °F - 57.2 °F 64% 29.89 in - Calm Calm - N/A   Clear
10:20 PM 68.0 °F - 55.4 °F 64% 29.89 in - West 5.8 mph - N/A   Clear
10:50 PM 68.0 °F - 55.4 °F 64% 29.89 in - WSW 4.6 mph - N/A   Clear
11:20 PM 68.0 °F - 55.4 °F 64% 29.89 in - WSW 4.6 mph - N/A   Clear
11:50 PM 66.2 °F - 55.4 °F 68% 29.89 in - WSW 5.8 mph - N/A   Clear